COSMOS 2520

Last updated on Oct. 24, 2020, 5:54 a.m. UTC

1 42907U 17046A   20297.94463726  .00000122  00000-0  00000-0 0  9996
2 42907   0.0200 140.9560 0000148 190.6604  86.2960  1.00271878 11715
UTC
Height (km)
Latitude
Longitude
Inclination
Orbital Period
UTC large
Height (km)
Speed (km/s)
/
Latitude / Longitude
Inclination (degrees)
Orbital Period (minutes)
Azimuth
Elevation
Range (km)
Doppler Factor
iOS Compass Heading
iOS Angle

Next 30 passes for location: Hong Kong

Rise time Rise Azimuth (degrees) Set time Set Azimuth (degrees) Duration Max altitude (degrees)

No matching passes for this satellites